Location: Morlupo
(42.1333°N, 12.5000°E)
Time: 15:28:35
(UTC+00:00)

DELTA 2 R/B (1) - Pass Details

Date: 18 September 2020
Orbit: 790 x 803 km, 39.6° (Epoch: 25 October)

Event Time Altitude Azimuth Distance (km) Brightness Sun altitude
Rises 17:50:53 0° 273° (W) 3,277 9.2 -7.7°
Reaches altitude 10° 17:53:23 10° 270° (W) 2,347 7.7 -8.1°
Maximum altitude 17:58:49 60° 192° (SSW) 902 3.9 -9.1°
Enters shadow 18:03:51 12° 114° (ESE) 2,202 5.2 -10.0°
